KO4RJX-11 Weather Reports


time (UTC)temp
F
wind
direction
speed
knots
gust
knots
rain 1hr
in
rain 24hr
in
rain mn
in
humidity
%
barometer
mb
20260508054628 52 43 1.7 2.6 0.00 0.00 0.00 100 1008.6
20260508053948 52 18 0.9 1.7 0.00 0.00 0.00 100 1008.6
20260508053308 52 60 0.9 1.7 0.00 0.00 0.00 100 1008.3
20260508052628 53 1 1.7 2.6 0.00 0.00 0.00 100 1008.3
20260508051949 53 5 0.9 2.6 0.00 0.00 0.00 100 1008.3
20260508051308 53 19 0.9 3.5 0.00 0.00 0.00 100 1008.3
20260508050628 53 2 1.7 4.3 0.00 0.00 0.00 100 1008.3
20260508045948 53 360 2.6 4.3 0.00 0.00 0.00 99 1008.3
20260508045308 53 5 1.7 3.5 0.00 0.00 0.00 100 1008.3
20260508044628 53 1 1.7 3.5 0.00 0.00 0.00 99 1008.6
20260508043949 53 349 1.7 4.3 0.00 0.00 0.00 99 1008.6
20260508043518 53 0 2.6 4.3 0.00 0.00 0.00 99 1008.3
20260508042628 53 358 2.6 3.5 0.00 0.00 0.00 99 1008.3
20260508041949 53 2 0.9 3.5 0.00 0.00 0.00 99 1008.3
20260508041308 53 357 1.7 3.5 0.00 0.00 0.00 98 1008.3
20260508040628 53 351 0.9 3.5 0.00 0.00 0.00 99 1008.3
20260508035949 53 6 1.7 4.3 0.00 0.00 1.11 99 1007.9
20260508035309 53 3 1.7 5.2 0.00 0.00 1.11 99 1007.9
20260508034628 53 358 2.6 5.2 0.00 0.00 1.11 98 1007.9
20260508033949 53 12 1.7 5.2 0.00 0.00 1.11 100 1007.9
20260508033308 53 354 2.6 6.1 0.00 0.00 1.11 99 1007.6
20260508032628 53 6 4.3 6.1 0.00 0.00 1.11 100 1007.3
20260508031949 53 23 1.7 4.3 0.00 0.00 1.11 100 1007.3
20260508030628 53 2 2.6 3.5 0.00 0.00 1.11 100 1007.6
20260508025948 53 23 1.7 2.6 0.00 0.00 1.11 100 1007.3
20260508025308 53 14 1.7 2.6 0.00 0.00 1.11 100 1007.3
20260508024628 53 29 0.9 2.6 0.00 0.00 1.11 100 1007.3
20260508023948 53 43 0.9 2.6 0.00 0.00 1.11 100 1007.3
20260508023519 53 28 1.7 2.6 0.00 0.00 1.11 99 1007.3
20260508022628 53 9 0.9 3.5 0.00 0.00 1.11 99 1007.3
20260508021948 53 37 1.7 3.5 0.00 0.00 1.11 99 1006.9
20260508021309 53 13 1.7 3.5 0.00 0.00 1.11 98 1007.3
20260508020629 54 13 2.6 3.5 0.00 0.00 1.11 97 1007.3
20260508015948 53 2 1.7 2.6 0.00 0.00 1.11 98 1007.3
20260508015308 53 336 0.9 2.6 0.00 0.00 1.11 98 1006.9
20260508014628 53 3 1.7 2.6 0.00 0.00 1.11 98 1006.9
20260508013948 53 77 0.9 3.5 0.00 0.00 1.11 99 1006.6
20260508013308 53 37 1.7 2.6 0.00 0.00 1.11 100 1006.2
20260508012628 53 48 1.7 2.6 0.00 0.00 1.11 100 1006.2
20260508011949 53 339 0.9 3.5 0.00 0.00 1.11 99 1006.2
20260508011308 53 47 2.6 3.5 0.00 0.00 1.11 99 1006.2
20260508010628 53 47 1.7 2.6 0.00 0.00 1.11 100 1006.2
20260508010158 53 66 1.7 3.5 0.00 0.00 1.11 99 1006.2
20260508005308 53 12 1.7 3.5 0.00 0.00 1.11 100 1006.6
20260508004629 53 90 1.7 6.1 0.00 0.00 1.09 97 1006.2
20260508003948 53 358 3.5 6.1 0.00 0.00 1.05 96 1006.9
20260508003308 54 2 1.7 5.2 0.00 0.00 1.02 94 1006.2
20260508002628 54 3 2.6 5.2 0.00 0.00 1.00 91 1005.9
20260508001949 54 17 2.6 7.0 0.00 0.00 1.00 92 1005.6
20260508001308 53 44 2.6 6.1 0.00 0.00 1.00 92 1005.2
20260508000628 54 68 2.6 5.2 0.00 0.00 1.00 92 1005.2
20260507235948 54 46 1.7 6.1 0.00 0.00 1.00 93 1005.2
20260507235309 54 48 3.5 7.8 0.00 0.00 1.00 92 1005.2
20260507234628 54 36 3.5 6.1 0.00 0.00 1.00 90 1005.2
20260507233949 54 34 3.5 8.7 0.00 0.00 1.00 91 1005.2
20260507233308 54 41 4.3 12.2 0.00 0.00 1.00 90 1005.2
20260507232629 54 31 4.3 10.4 0.00 0.00 1.00 90 1005.2
20260507231948 54 38 3.5 8.7 0.00 0.00 1.00 91 1005.2
20260507231308 54 34 5.2 7.8 0.00 0.00 1.00 90 1005.2
20260507230628 54 30 4.3 11.3 0.00 0.00 1.00 91 1004.9
20260507225949 54 50 7.0 11.3 0.00 0.00 1.00 90 1004.9
20260507225308 54 20 4.3 11.3 0.00 0.00 1.00 91 1004.5
20260507224628 54 26 3.5 11.3 0.00 0.00 1.00 94 1004.9
20260507223948 54 57 4.3 9.6 0.00 0.00 1.00 93 1004.9
20260507223308 54 32 5.2 10.4 0.00 0.00 1.00 92 1004.5
20260507222838 54 34 4.3 11.3 0.00 0.00 1.00 93 1004.5
20260507221948 54 48 6.1 11.3 0.00 0.00 1.00 93 1004.5
20260507221309 54 42 3.5 7.0 0.00 0.00 1.00 95 1004.5
20260507220628 54 24 4.3 9.6 0.00 0.00 1.00 95 1004.9
20260507215948 54 24 4.3 10.4 0.00 0.00 1.00 94 1004.5
20260507215308 54 12 4.3 14.8 0.00 0.00 1.00 96 1004.5
20260507214628 53 46 7.8 14.8 0.00 0.00 1.00 95 1004.5
20260507213948 54 13 7.0 13.9 0.00 0.00 1.00 96 1004.2
20260507213308 54 18 7.0 11.3 0.00 0.00 1.00 97 1004.5
20260507212628 54 13 6.1 14.8 0.00 0.00 1.00 98 1004.5
20260507211948 54 7 6.1 14.8 0.00 0.00 1.00 98 1004.2
20260507211308 55 29 5.2 14.8 0.00 0.00 1.00 98 1004.2
20260507210628 55 35 7.8 14.8 0.00 0.00 1.00 96 1003.9
20260507205948 55 21 7.8 14.8 0.00 0.00 1.00 98 1003.9
20260507205308 55 12 7.8 13.0 0.00 0.00 1.00 98 1003.9
20260507204629 56 8 5.2 9.6 0.00 0.00 1.00 99 1003.9
20260507203948 56 21 5.2 11.3 0.00 0.00 0.98 100 1003.9
20260507203308 56 16 5.2 12.2 0.00 0.00 0.93 99 1003.5
20260507202628 56 26 5.2 12.2 0.00 0.00 0.93 99 1003.5
20260507201948 56 3 7.0 9.6 0.00 0.00 0.88 99 1003.5
20260507201308 56 11 4.3 10.4 0.00 0.00 0.83 100 1003.5
20260507200628 57 15 5.2 13.0 0.00 0.00 0.80 98 1003.5
20260507195948 57 27 6.1 11.3 0.00 0.00 0.77 97 1003.5
20260507195308 58 3 7.0 12.2 0.00 0.00 0.75 97 1003.5
20260507194628 59 10 7.0 12.2 0.00 0.00 0.75 97 1003.5
20260507193948 59 4 6.1 11.3 0.00 0.00 0.75 97 1003.5
20260507193309 59 27 6.1 13.9 0.00 0.00 0.75 94 1003.2
20260507192628 60 8 7.0 13.9 0.00 0.00 0.75 96 1003.5
20260507192200 60 18 7.0 13.9 0.00 0.00 0.75 96 1003.5
20260507191308 60 9 6.1 13.9 0.00 0.00 0.75 97 1003.2
20260507190841 60 11 5.2 12.2 0.00 0.00 0.75 97 1002.5
20260507185948 61 42 6.1 10.4 0.00 0.00 0.75 96 1002.8
20260507185308 61 29 5.2 10.4 0.00 0.00 0.75 97 1002.8
20260507184628 61 20 4.3 10.4 0.00 0.00 0.75 96 1003.2
20260507183948 62 3 3.5 8.7 0.00 0.00 0.75 96 1003.2
20260507183519 62 2 4.3 13.0 0.00 0.00 0.75 97 1002.8
20260507182628 62 5 6.1 13.9 0.00 0.00 0.75 95 1002.8
20260507182200 63 16 5.2 18.2 0.00 0.00 0.75 92 1002.8
20260507181308 70 346 3.5 13.9 0.00 0.00 0.75 90 1002.8
20260507180628 70 272 1.7 5.2 0.00 0.00 0.75 92 1002.8
20260507175949 70 274 2.6 5.2 0.00 0.00 0.75 91 1002.8
20260507175308 70 272 1.7 7.8 0.00 0.00 0.75 92 1002.8
20260507174628 70 233 5.2 7.8 0.00 0.00 0.75 90 1002.8
20260507173948 70 236 1.7 6.1 0.00 0.00 0.75 91 1002.5
20260507173308 70 233 2.6 7.0 0.00 0.00 0.75 93 1002.5
20260507172628 70 191 2.6 7.0 0.00 0.00 0.75 94 1002.2
20260507172201 70 191 2.6 4.3 0.00 0.00 0.75 95 1002.5
20260507171308 69 206 1.7 4.3 0.00 0.00 0.75 95 1002.5
20260507170628 69 176 2.6 4.3 0.00 0.00 0.74 93 1002.8
20260507165948 69 195 2.6 4.3 0.00 0.00 0.74 94 1003.2
20260507165308 69 262 1.7 4.3 0.00 0.00 0.74 94 1003.2
20260507164628 69 245 2.6 7.0 0.00 0.00 0.74 96 1003.5
20260507163948 68 230 2.6 7.0 0.00 0.00 0.74 96 1003.5
20260507163308 68 250 2.6 7.8 0.00 0.00 0.74 95 1003.9
20260507162628 68 262 3.5 9.6 0.00 0.00 0.74 94 1003.9
20260507161948 68 259 2.6 7.8 0.00 0.00 0.74 95 1004.2
20260507161308 68 248 3.5 7.8 0.00 0.00 0.74 94 1004.2
20260507160628 68 242 3.5 7.8 0.00 0.00 0.74 94 1004.2
20260507155948 68 246 3.5 7.8 0.00 0.00 0.74 93 1003.9
20260507155308 68 258 2.6 7.0 0.00 0.00 0.74 93 1003.9
20260507154628 68 212 2.6 7.0 0.00 0.00 0.74 94 1003.5
20260507153948 67 223 3.5 5.2 0.00 0.00 0.74 96 1003.9
20260507153308 67 219 2.6 4.3 0.00 0.00 0.73 96 1003.5
20260507152628 67 233 2.6 9.6 0.00 0.00 0.72 96 1003.9
20260507151948 67 235 2.6 13.9 0.00 0.00 0.70 96 1004.2
20260507151518 67 270 3.5 13.9 0.00 0.00 0.69 96 1004.2
20260507150628 67 243 5.2 9.6 0.00 0.00 0.68 96 1004.2
20260507145948 67 206 3.5 11.3 0.00 0.00 0.66 96 1004.5
20260507145308 67 238 5.2 10.4 0.00 0.00 0.63 95 1004.5
20260507144628 68 240 3.5 8.7 0.00 0.00 0.60 96 1004.5
20260507143948 68 247 3.5 10.4 0.00 0.00 0.57 95 1004.5
20260507143522 68 268 5.2 10.4 0.00 0.00 0.55 95 1004.5
20260507142628 68 240 3.5 9.6 0.00 0.00 0.54 94 1004.5
20260507141948 68 277 3.5 7.0 0.00 0.00 0.54 94 1004.5
20260507141308 68 283 1.7 3.5 0.00 0.00 0.53 96 1004.5
20260507140628 68 274 1.7 5.2 0.00 0.00 0.53 96 1004.5
20260507135948 68 221 1.7 5.2 0.00 0.00 0.53 95 1004.5
20260507135308 68 222 2.6 5.2 0.00 0.00 0.53 95 1004.9
20260507134628 68 277 0.9 3.5 0.00 0.00 0.53 96 1004.5
20260507133949 68 279 1.7 2.6 0.00 0.00 0.53 96 1004.5
20260507133308 68 287 1.7 3.5 0.00 0.00 0.53 96 1004.5
20260507132628 68 241 1.7 6.1 0.00 0.00 0.53 96 1004.5
20260507131948 68 208 1.7 6.1 0.00 0.00 0.53 97 1004.5
20260507131308 68 245 2.6 6.1 0.00 0.00 0.53 97 1004.5
20260507130628 68 242 3.5 7.0 0.00 0.00 0.53 97 1004.5
20260507125948 68 214 2.6 7.8 0.00 0.00 0.53 96 1004.2
20260507125308 68 190 4.3 7.8 0.00 0.00 0.53 96 1004.5
20260507124628 68 206 3.5 7.0 0.00 0.00 0.53 97 1004.5
20260507123948 68 219 3.5 7.0 0.00 0.00 0.53 98 1004.5
20260507123308 67 196 3.5 6.1 0.00 0.00 0.53 98 1004.5
20260507122628 67 193 2.6 6.1 0.00 0.00 0.53 99 1004.9
20260507121948 67 196 2.6 4.3 0.00 0.00 0.53 99 1004.9
20260507121308 67 226 2.6 5.2 0.00 0.00 0.53 99 1005.2
20260507120628 67 187 1.7 4.3 0.00 0.00 0.53 99 1004.9
20260507115948 67 188 2.6 4.3 0.00 0.00 0.53 98 1004.9
20260507115308 67 207 1.7 6.1 0.00 0.00 0.53 99 1005.2
20260507114628 66 197 2.6 5.2 0.00 0.00 0.53 99 1005.2
20260507114158 66 207 2.6 5.2 0.00 0.00 0.53 99 1005.2
20260507113519 66 190 2.6 5.2 0.00 0.00 0.53 98 1005.2
20260507112628 66 207 1.7 6.1 0.00 0.00 0.53 99 1005.2
20260507111949 66 207 3.5 6.1 0.00 0.00 0.53 99 1005.6
20260507111308 66 211 2.6 7.0 0.00 0.00 0.53 99 1005.2
20260507110628 66 226 2.6 7.0 0.00 0.00 0.53 98 1005.2
20260507105948 66 211 2.6 5.2 0.00 0.00 0.53 99 1005.2
20260507105308 66 219 2.6 5.2 0.00 0.00 0.53 99 1005.2
20260507104628 66 235 3.5 5.2 0.00 0.00 0.52 99 1004.9
20260507103948 66 221 2.6 7.0 0.00 0.00 0.52 99 1005.2
20260507103309 66 208 2.6 5.2 0.00 0.00 0.51 99 1004.9
20260507102628 66 210 2.6 7.0 0.00 0.00 0.51 99 1005.2
20260507101948 66 223 3.5 5.2 0.00 0.00 0.51 98 1005.2
20260507101521 66 222 2.6 7.0 0.00 0.00 0.51 98 1005.2
20260507100842 66 237 3.5 7.0 0.00 0.00 0.51 98 1004.9
20260507095948 66 218 3.5 7.0 0.00 0.00 0.50 98 1004.9
20260507095309 66 229 4.3 7.0 0.00 0.00 0.50 98 1004.9
20260507094628 66 231 3.5 7.0 0.00 0.00 0.50 98 1004.9
20260507093949 66 216 3.5 7.0 0.00 0.00 0.50 98 1004.9
20260507093309 66 227 2.6 6.1 0.00 0.00 0.50 98 1004.5
20260507092628 66 228 3.5 6.1 0.00 0.00 0.50 99 1004.9
20260507091948 66 210 3.5 7.8 0.00 0.00 0.50 99 1004.9
20260507091308 66 229 4.3 9.6 0.00 0.00 0.50 99 1004.9
20260507090628 66 238 3.5 9.6 0.00 0.00 0.50 99 1005.2
20260507085948 66 215 3.5 8.7 0.00 0.00 0.50 100 1005.2
20260507085519 66 202 4.3 8.7 0.00 0.00 0.49 100 1005.2
20260507084628 66 202 3.5 7.0 0.00 0.00 0.46 100 1005.2
20260507083948 66 191 2.6 6.1 0.00 0.00 0.42 100 1005.6
20260507083307 66 227 3.5 6.1 0.00 0.00 0.39 100 1005.6
20260507082628 66 224 2.6 5.2 0.00 0.00 0.38 100 1005.9
20260507081947 66 206 3.5 6.1 0.00 0.00 0.37 100 1005.6
20260507081307 66 227 3.5 6.1 0.00 0.00 0.36 100 1005.6
20260507080627 66 165 3.5 5.2 0.00 0.00 0.34 100 1004.9
20260507075947 66 172 0.9 2.6 0.00 0.00 0.33 100 1005.6
20260507075308 66 165 0.9 1.7 0.00 0.00 0.32 100 1005.9
20260507074840 66 179 0.9 3.5 0.00 0.00 0.31 100 1005.9
20260507074200 66 203 1.7 3.5 0.00 0.00 0.31 100 1005.9
20260507073307 66 155 1.7 4.3 0.00 0.00 0.30 100 1005.6
20260507072837 66 175 1.7 4.3 0.00 0.00 0.30 100 1005.9
20260507071947 66 171 1.7 3.5 0.00 0.00 0.30 100 1005.9
20260507071307 66 163 1.7 2.6 0.00 0.00 0.30 100 1005.9
20260507070627 66 200 1.7 2.6 0.00 0.00 0.30 100 1006.2
20260507065947 66 169 1.7 2.6 0.00 0.00 0.30 100 1006.2
20260507065308 66 165 0.9 1.7 0.00 0.00 0.30 100 1006.2
20260507064841 66 155 0.9 1.7 0.00 0.00 0.30 100 1006.2
20260507063948 66 141 0.9 1.7 0.00 0.00 0.30 100 1006.2
20260507063307 66 145 0.9 1.7 0.00 0.00 0.30 100 1006.6
20260507062627 66 89 0.9 2.6 0.00 0.00 0.30 100 1006.6
20260507061947 66 250 0.9 3.5 0.00 0.00 0.30 100 1007.3
20260507061307 66 230 2.6 3.5 0.00 0.00 0.30 100 1006.9
20260507060627 66 177 1.7 2.6 0.00 0.00 0.30 100 1006.2
20260507055947 66 193 1.7 3.5 0.00 0.00 0.30 100 1006.2
20260507055307 66 208 2.6 4.3 0.00 0.00 0.30 99 1006.6